Location: An Móta
(53.3939°N, 7.7172°W)
Time: 11:50:16
(UTC+00:00)

Daily predictions for brighter satellites

Satellite Brightness Start Highest point End
(mag) Time Altitude Azimuth Time Altitude Azimuth Time Altitude Azimuth
NOSS 3-2 (A) 4.4 19:47:45 10° NW 19:54:46 66° SW 20:03:18 10° SSE
NOSS 2-3 (D) 4.2 19:52:27 10° NW 19:57:02 65° NE 20:03:08 10° ESE
Meteor 2-5 Rocket 3.7 19:51:43 10° NNW 19:57:17 84° ENE 20:02:51 10° SSE
ARIANE 6 FM1 Upper Stage 3.3 19:56:06 10° SSW 19:59:50 34° SE 20:03:31 10° ENE
Cosmos 1980 Rocket 4.3 19:55:50 10° W 20:00:47 30° NW 20:05:46 10° NNE
Okean 1-7 3.5 19:57:45 10° NNW 20:01:49 60° W 20:05:52 10° S
Nadezhda 3 Rocket 4.0 19:56:26 10° N 20:02:39 73° ENE 20:08:47 10° SSE
ERS-1 Rocket 3.2 19:59:49 10° SE 20:04:39 52° ENE 20:09:30 10° N
Cosmos 1441 Rocket 3.6 20:02:51 10° NNW 20:06:11 55° W 20:09:29 10° S
Cosmos 1943 Rocket 3.0 20:02:11 10° NNW 20:07:31 39° NE 20:12:48 10° ESE
Cosmos 1707 Rocket 4.4 20:04:31 10° NNW 20:08:45 54° W 20:12:56 10° S
Helios 1A Rocket 2.7 20:07:36 10° NNE 20:10:42 39° E 20:13:45 10° S
USA 59 Rocket 1.3 20:11:28 10° NNW 20:13:41 19° NNE 20:16:10 10° ENE
Cosmos 2228 Rocket 3.8 20:14:32 10° NNW 20:18:59 59° W 20:23:21 10° S
Cosmos 2154 Rocket 4.0 20:13:49 10° S 20:20:07 78° E 20:26:30 10° NNE
Exosat Rocket 4.4 20:15:10 10° NW 20:20:35 65° WSW 20:27:49 10° SSE
Aureole 1 Rocket 2.3 20:18:02 10° SSW 20:21:14 79° WNW 20:24:13 10° NNE
Cosmos 494 Rocket 4.2 20:16:20 10° NNW 20:21:26 57° ENE 20:26:29 10° SE
Cosmos 2278 4.1 20:17:39 10° SW 20:23:18 70° NW 20:29:00 10° NNE
ATLAS 3B R/B 3.2 20:16:00 10° SW 20:23:46 85° NW 20:31:44 10° NE
Okean-O 3.4 20:20:35 11° SE 20:24:27 35° ENE 20:28:26 10° N
SeaSat 1 4.3 20:21:04 10° ENE 20:24:29 19° NNE 20:27:53 10° NNW
USA 229 DEB 3.9 20:19:45 10° WSW 20:25:55 74° NW 20:32:58 10° NE
USA 229 3.9 20:19:48 10° SW 20:25:58 75° NW 20:33:02 10° NE
deb Kosmos-1261 3.9 20:25:39 10° SW 20:27:23 76° SE 20:31:50 10° NE
Cosmos 2360 Rocket 2.2 20:22:07 10° SSW 20:27:46 90° N 20:33:27 10° NNE
Meteor 2-19 Rocket 4.5 20:22:03 10° N 20:28:16 79° ENE 20:34:25 10° SSE
CBERS 1 LM4 rocket 4.3 20:25:27 10° SSE 20:30:10 82° ENE 20:34:55 10° NNW
Cosmos 1340 Rocket 3.8 20:28:41 10° SSW 20:32:13 47° WNW 20:35:48 10° N
Meteor 1-16 Rocket 4.3 20:26:31 10° S 20:32:23 69° E 20:38:15 10° NNE
Cosmos 1666 Rocket 4.5 20:28:39 10° SSW 20:32:49 52° WNW 20:37:03 10° N
Cosmos 1633 Rocket 3.7 20:29:28 10° SSW 20:33:48 61° WNW 20:38:09 10° N
Cosmos 2322 Rocket 2.4 20:30:09 10° SW 20:35:46 76° WNW 20:41:25 10° NNE
Cosmos 1869 Rocket 4.1 20:31:52 10° SSE 20:35:53 36° E 20:39:56 10° NNE
Cosmos 2098 4.1 20:33:58 10° S 20:36:58 88° WNW 20:40:01 10° N
Cosmos 2184 Rocket 4.3 20:31:55 10° SSW 20:38:18 76° WNW 20:44:42 10° N
ADEOS 3.6 20:33:44 10° SSE 20:38:57 83° ENE 20:44:12 10° NNW
Terra 1.8 20:35:07 10° SSE 20:39:49 85° ENE 20:44:32 10° NNW
CZ-4 R/B 2.1 20:37:29 10° S 20:41:12 49° W 20:44:52 10° NNW
Feng Yun 1-1 Rocket 4.5 20:36:43 10° S 20:42:18 73° WSW 20:47:49 10° NNW
ATLAS 5 CENTAUR R/B 3.2 20:40:01 10° WNW 20:42:33 22° NNW 20:45:24 10° NE
SL-16 R/B 3.4 20:38:30 10° WSW 20:43:57 46° NW 20:49:26 10° NNE
MOS 1 4.4 20:40:29 10° SSE 20:46:06 77° WSW 20:51:49 10° NNW
SL-08 R/B 3.6 20:42:13 10° NNE 20:46:57 48° E 20:51:41 10° S
Cosmos 1898 Rocket 3.6 20:41:54 10° SSW 20:47:09 84° WNW 20:52:23 10° NNE
Okean O Rocket 1.7 20:43:57 14° SE 20:47:31 57° ENE 20:51:48 10° N
Cosmos 2237 Rocket 3.6 20:47:31 16° ESE 20:48:35 17° E 20:52:03 10° ENE
Cosmos 2322 4.1 20:46:45 10° S 20:52:02 40° ESE 20:57:21 10° NE
CZ-4B R/B 3.6 20:51:35 20° ESE 20:53:16 30° ENE 20:56:23 10° N
ASTEX 1 4.1 20:50:47 18° SE 20:53:46 35° ENE 20:58:13 10° N
Cosmos 2341 Rocket 4.2 20:48:41 10° SSE 20:54:43 53° E 21:00:49 10° NNE
Meteor 1-21 Rocket 4.2 20:50:56 10° N 20:56:30 66° ENE 21:01:08 16° SSE
Cosmos 1680 Rocket 3.8 20:52:36 10° NNW 20:57:48 67° WSW 21:02:37 12° SSE
IRS-1A Rocket 4.3 20:52:18 10° SSE 20:57:52 90° WSW 21:03:34 10° NNW
Cosmos 1400 Rocket 4.4 21:03:02 16° E 21:03:02 16° E 21:04:55 10° NE
Cosmos 2219 Rocket 2.3 20:58:36 10° SW 21:04:11 79° WNW 21:09:50 10° NNE
USA 186 0.5 21:04:43 64° SE 21:04:55 74° ENE 21:07:05 10° N
Meteor 2-14 Rocket 4.4 20:58:57 10° N 21:05:03 70° ENE 21:09:57 16° SSE
SPOT 3 Rocket 4.0 21:02:10 21° SE 21:05:26 47° ENE 21:10:25 10° N
Cosmos 1937 Rocket 3.7 21:03:18 10° SSW 21:08:36 77° WNW 21:13:55 10° NNE
SL-24 R/B - RUBIN 2 4.4 21:08:51 10° NW 21:13:02 43° SW 21:16:04 18° S
Cosmos 2112 Rocket 4.4 21:10:14 10° NNW 21:15:22 59° WSW 21:19:33 15° S
Cosmos 2369 Rocket 3.8 21:12:34 10° NNW 21:17:05 24° NNE 21:20:57 12° E
Cosmos 1674 Rocket 4.3 21:14:35 10° N 21:18:33 35° ENE 21:19:57 28° ESE
USA 245 3.6 21:17:15 29° SE 21:19:08 62° ENE 21:23:50 10° N
USA 234 3.3 21:12:58 10° ENE 21:19:33 87° NNW 21:26:08 10° WSW
SKYMED 3 4.5 21:16:14 10° N 21:20:07 72° WNW 21:23:59 10° SSW
COSMOS 2428 2.8 21:16:08 10° S 21:21:43 57° ESE 21:27:21 10° NE
SL-8 Rocket 3.9 21:15:48 10° S 21:22:01 81° E 21:28:21 10° NNE
CZ-4B R/B 4.1 21:17:57 10° S 21:23:18 48° W 21:28:44 10° NNW
Helios 1B rocket 4.4 21:23:49 12° ENE 21:24:21 12° NE 21:25:44 10° NNE
NOSS 0 Rocket 4.2 21:18:56 10° S 21:24:46 43° ESE 21:30:37 10° NE
Cosmos 1727 Rocket 4.2 21:18:32 10° N 21:24:51 59° ENE 21:28:33 25° SE
Cosmos 2278 Rocket 2.2 21:20:38 10° NNW 21:26:22 89° SW 21:29:38 27° SSE
USA 238 DEB 3.9 21:19:57 10° NW 21:27:13 86° NE 21:32:16 25° SE
USA 238 3.9 21:20:07 10° NW 21:27:23 85° NE 21:32:26 25° SE
Ariane Rocket 3.1 21:26:52 29° SE 21:29:17 57° ENE 21:34:15 10° N
Cosmos 1346 Rocket 3.6 21:27:56 10° N 21:31:11 30° ENE 21:31:34 29° E
Cosmos 2366 rocket 3.9 21:25:53 10° S 21:32:04 86° E 21:38:15 10° NNE
CZ-2C R/B 2.3 21:32:30 51° ENE 21:32:34 51° ENE 21:35:25 10° N
Geosat 4.5 21:27:46 10° NNE 21:32:44 63° NW 21:37:40 10° SW
Cosmos 2333 Rocket 4.2 21:28:49 10° W 21:33:48 31° NW 21:38:48 10° NNE
Lacrosse 5 rocket 0.8 21:31:21 10° SW 21:34:04 51° S 21:34:04 51° S
Spot 2 Rocket 4.0 21:33:59 17° S 21:37:50 57° W 21:42:48 10° NNW
USA 32 3.9 21:34:21 18° S 21:38:19 83° E 21:43:35 10° N
Cosmos 1378 Rocket 3.5 21:34:12 10° N 21:38:37 74° ENE 21:40:16 38° SSE
ARIANE 6 FM1 Upper Stage 3.4 21:34:42 10° WSW 21:38:43 53° NNW 21:42:40 10° NE
YAOGAN 11 4.2 21:43:12 10° NNE 21:47:25 71° WNW 21:51:10 13° SSW
Cosmos 1656 Rocket 4.0 21:42:45 10° NNW 21:48:04 50° NE 21:50:17 32° ESE
Cosmos 1943 Rocket 2.7 21:45:56 10° NW 21:51:28 53° WSW 21:54:30 26° S
Cosmos 614 Rocket 3.9 21:46:51 10° NNW 21:52:05 82° ENE 21:53:59 40° SSE
Meteor 1-11 4.3 21:50:19 10° NNW 21:55:54 73° W 21:58:49 29° S
SL-16 R/B 4.0 21:58:05 15° E 21:58:05 15° E 21:59:59 10° ENE
Cosmos 1733 Rocket 2.9 21:55:13 34° S 21:57:03 89° E 22:01:28 10° NNE
Cosmos 2218 Rocket 4.2 21:51:31 10° SSW 21:57:38 71° WNW 22:03:48 10° N
Meteor 2-16 Rocket 4.4 21:53:54 10° N 22:00:06 81° ENE 22:02:54 35° SSE
Cosmos 192 4.2 21:57:21 21° SSW 22:00:37 81° ESE 22:05:35 10° NNE
Okean-O 4.0 21:57:55 17° SSW 22:00:44 34° W 22:04:45 10° NNW
SeaSat 1 2.6 21:59:30 40° ESE 22:01:06 61° NE 22:05:57 10° NNW
Cosmos 2123 Rocket 4.1 21:55:15 10° N 22:01:26 61° ENE 22:03:50 37° SE
Meteor 2-15 Rocket 4.3 21:57:49 22° S 22:01:52 84° E 22:08:00 10° NNE
CZ-4B R/B 3.6 22:00:12 34° S 22:02:16 68° WSW 22:07:05 10° NNW
USA 59 Rocket -0.7 21:59:28 10° NW 22:02:39 80° NE 22:02:48 77° E
BREEZE-M DEB (TANK) 4.0 22:01:48 10° WSW 22:02:41 20° WSW 22:02:41 20° WSW
IRS-1C Rocket 4.1 22:01:56 35° S 22:04:12 78° WSW 22:09:31 10° NNW
Cosmos 1934 Rocket 4.4 22:03:44 36° SE 22:05:27 44° E 22:11:19 10° NNE
NOSS 3-4 (A) 3.3 22:10:28 44° SSE 22:11:25 49° SE 22:17:05 10° NE
NOSS 3-4 (C) 3.3 22:11:02 45° SSE 22:11:56 49° SE 22:17:37 10° NE
Cosmos 1821 Rocket 4.1 22:06:58 17° SSW 22:11:58 76° WNW 22:18:20 10° N
Cosmos 2360 Rocket 4.4 22:07:46 10° W 22:12:30 27° NW 22:17:16 10° NNE
TIMED 4.3 22:08:17 10° NNW 22:12:34 88° ENE 22:13:06 68° SSE
ATLAS 3B R/B 4.1 22:08:02 10° W 22:15:30 45° NNW 22:23:00 10° NE
Cosmos 2239 Rocket 4.4 22:13:59 34° S 22:16:53 80° E 22:23:07 10° NNE
Aureole 3 4.4 22:13:17 10° NNW 22:17:07 45° W 22:18:55 30° SSW
Terra 4.3 22:15:08 10° SW 22:17:58 16° W 22:20:50 10° NW
NOSS 2-1 (E) 3.1 22:18:12 10° NW 22:21:04 69° NNW 22:21:04 69° NNW
NOSS 2-1 (C) 3.2 22:19:57 10° NW 22:22:43 67° NW 22:22:43 67° NW
Okean O Rocket 3.7 22:21:11 12° SW 22:24:02 21° W 22:27:22 10° NW
NOSS 3-1 (C) 4.2 22:17:51 10° NW 22:24:07 57° NNE 22:28:44 25° E
Cosmos 1025 Rocket 3.1 22:21:20 10° NNW 22:25:33 67° W 22:26:07 58° SW
ATLAS 5 CENTAUR R/B 3.7 22:23:18 10° NW 22:25:45 18° N 22:28:30 10° NE
CZ-4B R/B 4.2 22:26:18 25° WSW 22:27:01 27° W 22:30:06 10° NW
SME Rocket 4.5 22:21:30 10° NNE 22:27:32 67° ESE 22:32:12 30° S
RESURS DK-1 4.3 22:30:06 18° NE 22:30:06 18° NE 22:31:18 10° NE
NOSS 2-1 (D) 3.4 22:25:32 10° NW 22:28:09 57° WNW 22:28:09 57° WNW
SL-08 R/B 4.4 22:23:45 10° N 22:29:57 90° WNW 22:32:01 45° S
ALOS 2 4.3 22:29:40 21° ENE 22:30:05 22° ENE 22:33:25 10° N
Cosmos 2237 Rocket 2.1 22:29:12 35° SSW 22:31:44 80° ESE 22:37:28 10° NNE
Cosmos 1125 Rocket 3.4 22:31:27 56° S 22:32:30 74° ESE 22:37:45 10° NNE
Cosmos 1980 3.6 22:29:38 30° SSW 22:32:35 85° ESE 22:38:16 10° NNE
Cosmos 2292 Rocket 4.3 22:27:35 10° NNW 22:33:28 61° W 22:34:54 43° SSW
Cosmos 1605 Rocket 4.4 22:32:45 39° ESE 22:33:29 41° E 22:39:09 10° NNE
Cosmos 2297 4.2 22:30:15 10° NNW 22:35:53 53° NE 22:37:29 41° E
TSX-5 4.5 22:38:07 50° ENE 22:38:07 50° ENE 22:41:21 10° NE
Cosmos 1400 Rocket 3.3 22:37:29 49° W 22:37:36 49° WNW 22:41:08 10° N
ARIANE 5 R/B 3.8 22:40:11 30° ENE 22:40:14 30° ENE 22:44:01 10° N
COSMOS 2455 4.2 22:36:04 10° NW 22:41:28 33° NNE 22:45:15 17° E
Cosmos 1975 Rocket 3.6 22:37:21 10° N 22:41:32 48° ENE 22:41:32 48° ENE
Cosmos 2219 Rocket 4.5 22:44:31 10° W 22:49:00 24° NNW 22:53:32 10° NNE
Helios 1B rocket 3.1 22:57:49 45° NNW 22:57:49 45° NNW 23:00:21 10° NNW
Cosmos 1908 Rocket 3.6 22:59:12 71° WNW 22:59:12 71° WNW 23:03:33 10° N
Cosmos 2369 Rocket 2.0 22:56:20 10° NNW 23:01:59 80° ENE 23:02:43 67° ESE
USA 234 3.6 22:55:58 10° ENE 23:02:26 66° N 23:08:56 10° W
Cosmos 1869 4.4 23:07:09 36° N 23:07:09 36° N 23:09:22 10° N
Cosmos 1346 Rocket 4.4 23:03:10 10° NW 23:05:50 25° W 23:05:50 25° W
COSMOS 2428 4.1 23:00:55 10° WSW 23:06:14 38° NW 23:11:34 10° NNE
Cosmos 1782 Rocket 3.9 23:08:26 58° NNE 23:08:26 58° NNE 23:12:00 10° NNE
Cosmos 2263 4.2 23:02:42 10° NNW 23:08:20 71° NE 23:09:06 62° ESE
Helios 1A 3.4 23:05:27 10° NNE 23:08:37 55° N 23:08:37 55° N
Cosmos 2278 Rocket 4.1 23:05:48 10° WNW 23:09:40 19° W 23:11:29 16° WSW
Cosmos 1023 Rocket 4.5 23:09:25 10° NNW 23:14:34 67° ENE 23:14:45 66° ENE
NOSS 3-1 (A) 4.3 23:08:56 10° NW 23:15:15 56° NNE 23:19:58 25° E
Spot 4 4.0 23:16:25 59° ENE 23:16:25 59° ENE 23:20:57 10° N
Cosmos 2058 3.7 23:14:13 10° N 23:17:08 46° N 23:17:08 46° N
DNEPR-1 R/B 4.4 23:30:04 37° W 23:31:12 48° NW 23:35:40 10° NE
Cosmos 1656 Rocket 4.5 23:26:32 10° NW 23:31:28 36° WSW 23:31:36 36° WSW
CZ-2C R/B 4.4 23:27:28 10° NNE 23:30:43 43° NE 23:30:43 43° NE
SJ 16-02 2.9 23:29:34 10° N 23:33:12 26° NE 23:33:16 26° NE
Cosmos 407 Rocket 4.0 23:28:59 10° NNW 23:34:01 49° ENE 23:34:21 48° ENE
Cosmos 1153 Rocket 4.4 23:36:24 64° ESE 23:36:51 67° E 23:43:03 10° NNE
SeaSat 1 3.8 23:39:06 28° WSW 23:39:06 28° WSW 23:43:01 10° NW
SL-16 R/B 2.1 23:39:53 78° ESE 23:39:53 78° ESE 23:45:30 10° NNE
Meteor 2-17 Rocket 4.3 23:34:06 10° N 23:40:18 87° E 23:40:58 73° SSE
Cosmos 2298 Rocket 3.9 23:44:10 85° NNE 23:44:10 85° NNE 23:49:23 10° NNE
CZ-2C R/B 3.5 23:44:18 38° E 23:45:08 40° ENE 23:50:15 10° N
Meteor 2-3 Rocket 4.1 23:39:56 10° N 23:45:27 52° ENE 23:45:50 51° E
Cosmos 921 Rocket 3.6 23:41:14 10° NNW 23:44:53 57° N 23:44:53 57° N
Cosmos 1315 Rocket 4.2 23:49:49 35° N 23:49:49 35° N 23:52:11 10° N
Cosmos 1140 Rocket 3.5 23:43:50 10° NNW 23:48:38 71° WNW 23:48:38 71° WNW
Cosmos 1356 Rocket 4.5 23:53:23 42° N 23:53:23 42° N 23:56:09 10° NNE
Cosmos 1536 Rocket 4.3 23:48:05 10° N 23:51:23 48° NNE 23:51:23 48° NNE
